Tracking 28126 objects as of 1-Oct-2023
HD Live streaming from Space Station
objects crossing your sky now

STARLINK-3953

Track STARLINK-3953 now!
10-day predictions
STARLINK-3953 is classified as:


NORAD ID: 52559
Int'l Code: 2022-051AC
Perigee: 546.0 km
Apogee: 548.0 km
Inclination: 53.2 °
Period: 95.4 minutes
Semi major axis: 6917 km
RCS: Unknown
Launch date: May 13, 2022
Source: United States (US)
Launch site: AIR FORCE WESTERN TEST RANGE (AFWTR)
Your satellite tracking list
Your tracking list is empty




NASA's NSSDC Master Catalog

Two Line Element Set (TLE):
1 52559U 22051AC  23273.66799472 -.00014190  00000-0 -87605-3 0  9999
2 52559  53.2156 159.2545 0001481  84.7738 275.3423 15.08806498 77135
Source of the keplerian elements: AFSPC